• En Estados Unidos
  • Lista de países
  • Para 7 días
  • Temperatura del agua
  • Mapa Satelital
  • El tiempo en el mapa
  • Informadores
  • user-avatar
    Iniciar sesión

    Tiempo cada hora Batina

    Hoy, 17 Enero, Miércoles

    Tiempo Temperatura Precipitaciones Viento Presión Humedad
    00:00 +5°C° 0 mm 3 mps 674 mmHg 56%
    01:00 +5°C° 0 mm 3 mps 674 mmHg 56%
    02:00 +5°C° 0 mm 3 mps 673 mmHg 56%
    03:00 +5°C° 0 mm 2 mps 673 mmHg 57%
    04:00 +5°C° 0 mm 2 mps 673 mmHg 56%
    05:00 +5°C° 0 mm 2 mps 672 mmHg 54%
    06:00 +5°C° 0 mm 2 mps 672 mmHg 52%
    07:00 +7°C° 0 mm 2 mps 673 mmHg 46%
    08:00 +8°C° 0 mm 2 mps 673 mmHg 40%
    09:00 +10°C° 0 mm 2 mps 674 mmHg 35%
    10:00 +13°C° 0 mm 2 mps 674 mmHg 31%
    11:00 +14°C° 0 mm 2 mps 674 mmHg 28%
    12:00 +16°C° 0 mm 2 mps 674 mmHg 24%
    13:00 +16°C° 0 mm 3 mps 674 mmHg 26%
    14:00 +16°C° 0 mm 3 mps 674 mmHg 27%
    15:00 +15°C° 0 mm 4 mps 674 mmHg 28%
    16:00 +13°C° 0 mm 3 mps 674 mmHg 36%
    17:00 +11°C° 0 mm 3 mps 674 mmHg 44%
    18:00 +9°C° 0 mm 2 mps 673 mmHg 52%
    19:00 +8°C° 0 mm 2 mps 674 mmHg 57%
    20:00 +8°C° 0 mm 2 mps 674 mmHg 62%
    21:00 +7°C° 0 mm 2 mps 674 mmHg 67%
    22:00 +6°C° 0 mm 2 mps 674 mmHg 70%
    23:00 +6°C° 0 mm 2 mps 674 mmHg 73%

    Mañana, 18 Enero, Jueves

    Tiempo Temperatura Precipitaciones Viento Presión Humedad
    00:00 +5°C° 0 mm 2 mps 674 mmHg 76%
    01:00 +5°C° 0 mm 2 mps 674 mmHg 77%
    02:00 +6°C° 0 mm 1 mps 674 mmHg 78%
    03:00 +5°C° 0 mm 1 mps 674 mmHg 80%
    04:00 +5°C° 0 mm 1 mps 674 mmHg 80%
    05:00 +4°C° 0 mm 1 mps 674 mmHg 79%
    06:00 +4°C° 0 mm 1 mps 674 mmHg 79%
    07:00 +6°C° 0 mm 1 mps 675 mmHg 72%
    08:00 +7°C° 0 mm 1 mps 675 mmHg 65%
    09:00 +9°C° 0 mm 1 mps 676 mmHg 58%
    10:00 +9°C° 0 mm 2 mps 676 mmHg 53%
    11:00 +10°C° 0 mm 3 mps 676 mmHg 49%
    12:00 +12°C° 0 mm 3 mps 676 mmHg 44%
    13:00 +12°C° 0 mm 3 mps 676 mmHg 44%
    14:00 +12°C° 0 mm 3 mps 675 mmHg 44%
    15:00 +12°C° 0 mm 3 mps 675 mmHg 44%
    16:00 +11°C° 0 mm 3 mps 674 mmHg 51%
    17:00 +9°C° 0 mm 3 mps 674 mmHg 58%
    18:00 +8°C° 0 mm 2 mps 674 mmHg 65%
    19:00 +7°C° 0 mm 2 mps 674 mmHg 69%
    20:00 +6°C° 0 mm 2 mps 673 mmHg 72%
    21:00 +6°C° 0 mm 2 mps 673 mmHg 76%
    22:00 +6°C° 0 mm 2 mps 673 mmHg 78%
    23:00 +5°C° 0 mm 2 mps 672 mmHg 79%

    Pasado mañana, 19 Enero, Viernes

    Tiempo Temperatura Precipitaciones Viento Presión Humedad
    00:00 +5°C° 0 mm 2 mps 672 mmHg 81%
    01:00 +4°C° 0 mm 2 mps 672 mmHg 80%
    02:00 +4°C° 0 mm 2 mps 671 mmHg 80%
    03:00 +4°C° 0 mm 2 mps 671 mmHg 79%
    04:00 +5°C° 0 mm 1 mps 670 mmHg 78%
    05:00 +4°C° 0 mm 1 mps 670 mmHg 77%
    06:00 +4°C° 0 mm 1 mps 670 mmHg 76%
    07:00 +6°C° 0 mm 1 mps 670 mmHg 67%
    08:00 +8°C° 0 mm 1 mps 671 mmHg 58%
    09:00 +9°C° 0 mm 1 mps 671 mmHg 49%
    10:00 +11°C° 0 mm 1 mps 671 mmHg 43%
    11:00 +12°C° 0 mm 1 mps 671 mmHg 37%
    12:00 +13°C° 0 mm 2 mps 670 mmHg 31%
    13:00 +14°C° 0 mm 2 mps 670 mmHg 32%
    14:00 +14°C° 0 mm 2 mps 670 mmHg 32%
    15:00 +14°C° 0 mm 2 mps 669 mmHg 32%
    16:00 +13°C° 0 mm 2 mps 669 mmHg 37%
    17:00 +11°C° 0 mm 3 mps 669 mmHg 43%
    18:00 +10°C° 0 mm 3 mps 669 mmHg 48%
    19:00 +9°C° 0 mm 3 mps 669 mmHg 56%
    20:00 +8°C° 0 mm 3 mps 669 mmHg 64%
    21:00 +7°C° 0 mm 3 mps 669 mmHg 72%
    22:00 +7°C° 0 mm 3 mps 669 mmHg 77%
    23:00 +5°C° 0 mm 3 mps 669 mmHg 82%

    20 Enero, Sábado

    Tiempo Temperatura Precipitaciones Viento Presión Humedad
    00:00 +5°C° 0 mm 3 mps 669 mmHg 87%
    01:00 +5°C° 0 mm 4 mps 669 mmHg 87%
    02:00 +5°C° 0 mm 4 mps 669 mmHg 86%
    03:00 +4°C° 0 mm 4 mps 669 mmHg 85%
    04:00 +4°C° 0 mm 4 mps 669 mmHg 84%
    05:00 +4°C° 0 mm 4 mps 669 mmHg 83%
    06:00 +4°C° 0 mm 4 mps 670 mmHg 82%
    07:00 +5°C° 0 mm 5 mps 670 mmHg 80%
    08:00 +5°C° 0 mm 5 mps 671 mmHg 79%
    09:00 +6°C° 0 mm 5 mps 671 mmHg 77%
    10:00 +6°C° 0 mm 5 mps 671 mmHg 73%
    11:00 +7°C° 0 mm 5 mps 672 mmHg 69%
    12:00 +7°C° 0 mm 5 mps 672 mmHg 64%
    13:00 +7°C° 0 mm 4 mps 672 mmHg 63%
    14:00 +7°C° 0 mm 4 mps 671 mmHg 62%
    15:00 +8°C° 0 mm 4 mps 671 mmHg 61%
    16:00 +8°C° 0 mm 3 mps 672 mmHg 65%
    17:00 +7°C° 0 mm 2 mps 672 mmHg 69%
    18:00 +6°C° 0 mm 2 mps 672 mmHg 73%
    19:00 +6°C° 0 mm 2 mps 672 mmHg 76%
    20:00 +5°C° 0 mm 2 mps 672 mmHg 79%
    21:00 +5°C° 0 mm 2 mps 673 mmHg 81%
    22:00 +5°C° 0 mm 2 mps 672 mmHg 82%
    23:00 +4°C° 0 mm 2 mps 672 mmHg 83%

    21 Enero, Domingo

    Tiempo Temperatura Precipitaciones Viento Presión Humedad
    00:00 +4°C° 0 mm 2 mps 672 mmHg 83%
    01:00 +4°C° 0 mm 2 mps 672 mmHg 84%
    02:00 +4°C° 0 mm 2 mps 672 mmHg 85%
    03:00 +3°C° 0 mm 2 mps 671 mmHg 86%
    04:00 +3°C° 0 mm 2 mps 672 mmHg 84%
    05:00 +3°C° 0 mm 2 mps 672 mmHg 83%
    06:00 +2°C° 0 mm 3 mps 672 mmHg 81%
    07:00 +4°C° 0 mm 3 mps 672 mmHg 74%
    08:00 +6°C° 0 mm 4 mps 673 mmHg 67%
    09:00 +7°C° 0 mm 4 mps 674 mmHg 60%
    10:00 +8°C° 0 mm 5 mps 674 mmHg 58%
    11:00 +10°C° 0 mm 6 mps 674 mmHg 55%
    12:00 +11°C° 0 mm 7 mps 675 mmHg 53%
    13:00 +11°C° 0 mm 7 mps 675 mmHg 56%
    14:00 +10°C° 0 mm 8 mps 674 mmHg 59%
    15:00 +10°C° 0 mm 9 mps 674 mmHg 62%
    16:00 +9°C° 0 mm 8 mps 674 mmHg 68%
    17:00 +8°C° 0 mm 6 mps 675 mmHg 74%
    18:00 +7°C° 0 mm 5 mps 675 mmHg 79%
    19:00 +7°C° 0 mm 5 mps 675 mmHg 81%
    20:00 +7°C° 0 mm 6 mps 675 mmHg 83%
    21:00 +7°C° 0 mm 6 mps 676 mmHg 85%
    22:00 +6°C° 0 mm 5 mps 676 mmHg 86%
    23:00 +6°C° 0 mm 5 mps 676 mmHg 87%

    22 Enero, Lunes

    Tiempo Temperatura Precipitaciones Viento Presión Humedad
    00:00 +6°C° 0 mm 5 mps 676 mmHg 88%
    01:00 +6°C° 0 mm 4 mps 676 mmHg 88%
    02:00 +6°C° 0 mm 4 mps 676 mmHg 87%
    03:00 +6°C° 0 mm 4 mps 676 mmHg 87%
    04:00 +6°C° 0 mm 4 mps 676 mmHg 87%
    05:00 +7°C° 0 mm 3 mps 676 mmHg 88%
    06:00 +5°C° 0 mm 3 mps 677 mmHg 88%
    07:00 +7°C° 0 mm 3 mps 677 mmHg 84%
    08:00 +8°C° 0 mm 3 mps 677 mmHg 80%
    09:00 +8°C° 0 mm 2 mps 678 mmHg 76%
    10:00 +9°C° 0 mm 2 mps 678 mmHg 70%
    11:00 +10°C° 0 mm 2 mps 678 mmHg 64%
    12:00 +12°C° 0 mm 2 mps 678 mmHg 58%
    13:00 +13°C° 0 mm 2 mps 678 mmHg 57%
    14:00 +13°C° 0 mm 2 mps 678 mmHg 55%
    15:00 +13°C° 0 mm 2 mps 677 mmHg 53%
    16:00 +12°C° 0 mm 2 mps 677 mmHg 58%
    17:00 +10°C° 0 mm 2 mps 677 mmHg 63%
    18:00 +10°C° 0 mm 1 mps 677 mmHg 68%
    19:00 +10°C° 0 mm 1 mps 677 mmHg 71%
    20:00 +9°C° 0 mm 1 mps 677 mmHg 74%
    21:00 +8°C° 0 mm 1 mps 677 mmHg 77%
    22:00 +8°C° 0 mm 1 mps 677 mmHg 79%
    23:00 +8°C° 0 mm 1 mps 676 mmHg 80%
    Mostrar más